Location: Gugi
(45.4667°N, 11.1000°E)
Time: 19:25:47
(UTC+00:00)

Cosmos 1939 Rocket - Pass Details

Date: 17 November 2019
Orbit: 532 x 585 km, 97.4° (Epoch: 05 December)

Event Time Altitude Azimuth Distance (km) Brightness Sun altitude
Exits shadow 17:12:12 19° 37° (NE) 1,407 4.5 -15.4°
Drops below altitude 10° 17:14:02 10° 14° (NNE) 1,909 5.3 -15.7°
Sets 17:16:31 0° 0° (N) 2,808 6.3 -16.2°
